< < Back
Terminal Aerodrome Forecast


Current Version              Previous Versions:   1  2  3  4  5  6  7  8  9  

Terminal Aerodrome Forecast

319
FTUS42 KGSP 171100
TAFAND
TAF
KAND 171135Z 1712/1812 05009KT P6SM BKN250
     FM171500 06013G23KT P6SM BKN250
     FM172200 08008KT P6SM BKN250
     FM180000 06004KT P6SM SCT040 BKN250
     FM180400 07008KT P6SM BKN040=



Latest METAR

513
SAUS70 KWBC 180800
MTRAND
METAR KAND 180756Z AUTO 05007KT 10SM BKN065 10/01 A3034 RMK AO2 SLP271
T01000011


USA.gov is the U.S. government's official web portal to all federal, state and local government web resources and services.